Prudhoe Bay, AK

2:33 PM AKST on February 24, 2017 (GMT -0900)
Deadhorse

Weather History for PASC - September, 2013

Change the Weather History Date:

Thursday, September 12, 2013

  Actual Average Record
Temperature  
Mean Temperature 38 °F -  
Max Temperature 43 °F 38 °F 59 °F (1986)
Min Temperature 33 °F 29 °F 21 °F (2003)
Degree Days  
Heating Degree Days 28    
Moisture  
Dew Point 36 °F    
Average Humidity 96    
Maximum Humidity 100    
Minimum Humidity 87    
Precipitation  
Precipitation 0.02 in - - ()
Sea Level Pressure  
Sea Level Pressure 29.80 in    
Wind  
Wind Speed 8 mph (NE)    
Max Wind Speed 14 mph    
Max Gust Speed -    
Visibility 4 miles    
Events Fog , Rain    
Averages and records for this station are not official NWS values.
T = Trace of Precipitation, MM = Missing Value Source: NWS Daily Summary

Daily Weather History Graph

Daily Weather History Graph

Search for Another Location

Airport or City:

Trip Planner

Search our weather history database for the weather conditions in past years. The results will help you decide how hot, cold, wet, or windy it might be!

Date:

Astronomy

Sep. 12, 2013 Rise Set
Actual Time 6:55 AM AKDT 8:41 PM AKDT
Civil Twilight 5:49 AM AKDT 9:47 PM AKDT
Nautical Twilight 4:14 AM AKDT 11:20 PM AKDT
Astronomical Twilight Sun does not rise 1:17 AM AKDT
Moon 7:41 PM AKDT (9/12) 8:41 PM AKDT (9/12)
Length of Visible Light 15h 57m
Length of Day
13h 46m
First Quarter, 51% of the Moon is Illuminated
Sep 12
First Quarter
Sep 19
Full
Sep 26
Last Quarter
Oct 4
New
Oct 11
First Quarter

Hourly Weather History & Observations

Time (AKDT) Temp. Windchill Dew Point Humidity Pressure Visibility Wind Dir Wind Speed Gust Speed Precip Events Conditions
12:53 AM 33.1 °F 23.4 °F 33.1 °F 100% 29.65 in 0.5 mi East 13.8 mph - N/A Fog Fog
1:53 AM 33.1 °F 24.9 °F 33.1 °F 100% 29.67 in 0.5 mi ENE 10.4 mph - N/A Fog Fog
2:20 AM 33.8 °F 25.8 °F 33.8 °F 100% 29.67 in 0.2 mi ENE 10.4 mph - N/A Fog Fog
2:53 AM 33.1 °F 26.1 °F 33.1 °F 100% 29.69 in 0.5 mi East 8.1 mph - N/A Fog Fog
3:53 AM 33.1 °F 28.7 °F 33.1 °F 100% 29.70 in 0.8 mi East 4.6 mph - N/A   Mist
4:33 AM 33.8 °F 27.0 °F 32.0 °F 93% 29.71 in 0.2 mi East 8.1 mph - N/A Fog Fog
4:49 AM 33.8 °F 26.4 °F 32.0 °F 93% 29.71 in 0.8 mi ENE 9.2 mph - N/A   Mist
4:53 AM 33.1 °F 26.1 °F 32.0 °F 96% 29.71 in 0.5 mi ENE 8.1 mph - N/A Fog Fog
5:16 AM 33.8 °F 27.0 °F 33.8 °F 100% 29.72 in 0.5 mi ENE 8.1 mph - N/A Fog Fog
5:53 AM 34.0 °F 28.0 °F 33.1 °F 96% 29.74 in 0.5 mi East 6.9 mph - N/A Fog Fog
6:00 AM 33.8 °F 27.7 °F 33.8 °F 100% 29.74 in 0.5 mi East 6.9 mph - N/A Fog Fog
6:08 AM 33.8 °F 29.6 °F 33.8 °F 100% 29.75 in 0.5 mi ESE 4.6 mph - N/A Fog Fog
6:49 AM 33.8 °F 28.6 °F 33.8 °F 100% 29.75 in 0.5 mi East 5.8 mph - N/A Fog Fog
6:53 AM 33.1 °F 27.7 °F 33.1 °F 100% 29.76 in 0.5 mi East 5.8 mph - N/A Fog Fog
7:13 AM 33.8 °F 27.7 °F 33.8 °F 100% 29.76 in 0.5 mi East 6.9 mph - N/A Fog Fog
7:23 AM 33.8 °F 27.0 °F 33.8 °F 100% 29.76 in 0.5 mi East 8.1 mph - N/A Fog Fog
7:43 AM 33.8 °F 28.6 °F 33.8 °F 100% 29.77 in 0.2 mi SE 5.8 mph - N/A Fog Fog
7:53 AM 34.0 °F 29.8 °F 34.0 °F 100% 29.78 in 0.5 mi SSE 4.6 mph - N/A Fog Fog
7:56 AM 33.8 °F 29.6 °F 33.8 °F 100% 29.77 in 0.2 mi SSE 4.6 mph - N/A Fog Fog
8:20 AM 33.8 °F 29.6 °F 33.8 °F 100% 29.78 in 5.0 mi SSE 4.6 mph - N/A   Overcast
8:53 AM 34.0 °F 28.8 °F 33.1 °F 96% 29.80 in 7.0 mi SSW 5.8 mph - N/A   Overcast
9:21 AM 33.8 °F 30.8 °F 33.8 °F 100% 29.80 in 10.0 mi SSW 3.5 mph - N/A   Overcast
9:53 AM 36.0 °F 30.3 °F 34.0 °F 93% 29.82 in 10.0 mi SW 6.9 mph - N/A   Overcast
10:53 AM 39.0 °F 31.0 °F 37.0 °F 93% 29.83 in 10.0 mi West 13.8 mph - 0.01 in Rain Light Rain
11:53 AM 39.9 °F 32.5 °F 39.0 °F 97% 29.86 in 10.0 mi West 12.7 mph - 0.01 in Rain Light Rain
12:53 PM 41.0 °F 33.5 °F 39.0 °F 93% 29.87 in 10.0 mi West 13.8 mph - 0.00 in   Overcast
1:53 PM 42.1 °F 37.1 °F 39.9 °F 92% 29.88 in 4.0 mi WNW 8.1 mph - N/A   Overcast
2:11 PM 42.8 °F 37.5 °F 41.0 °F 93% 29.88 in 2.0 mi NW 9.2 mph - N/A   Overcast
2:33 PM 42.8 °F 39.3 °F 41.0 °F 93% 29.88 in 5.0 mi NW 5.8 mph - N/A   Overcast
2:53 PM 42.1 °F 37.7 °F 39.9 °F 92% 29.89 in 5.0 mi NW 6.9 mph - N/A   Overcast
3:20 PM 42.8 °F 39.3 °F 39.2 °F 87% 29.89 in 2.0 mi NW 5.8 mph - N/A   Overcast
3:29 PM 42.8 °F 40.1 °F 41.0 °F 93% 29.89 in 1.0 mi NW 4.6 mph - N/A   Overcast
3:53 PM 42.1 °F 37.1 °F 41.0 °F 96% 29.89 in 1.0 mi NW 8.1 mph - N/A   Overcast
4:13 PM 41.0 °F 35.8 °F 39.2 °F 93% 29.88 in 3.0 mi NW 8.1 mph - N/A   Overcast
4:41 PM 42.8 °F 38.0 °F 39.2 °F 87% 29.88 in 10.0 mi NW 8.1 mph - N/A   Overcast
4:53 PM 42.1 °F 37.1 °F 39.9 °F 92% 29.88 in 10.0 mi NNW 8.1 mph - N/A   Overcast
5:21 PM 42.8 °F 39.3 °F 39.2 °F 87% 29.88 in 10.0 mi NNW 5.8 mph - N/A   Overcast
5:53 PM 42.1 °F 37.1 °F 39.0 °F 89% 29.88 in 10.0 mi North 8.1 mph - N/A   Overcast
6:53 PM 39.0 °F 34.0 °F 37.0 °F 93% 29.87 in 10.0 mi NNE 6.9 mph - N/A   Overcast
7:53 PM 37.9 °F 33.5 °F 36.0 °F 93% 29.86 in 10.0 mi NNE 5.8 mph - N/A   Overcast
8:21 PM 37.4 °F 34.9 °F 37.4 °F 100% 29.86 in 2.0 mi NNE 3.5 mph - N/A   Overcast
8:30 PM 37.4 °F 34.9 °F 37.4 °F 100% 29.85 in 7.0 mi NE 3.5 mph - N/A   Overcast
8:53 PM 37.0 °F 33.3 °F 36.0 °F 96% 29.84 in 5.0 mi ENE 4.6 mph - N/A   Overcast
9:06 PM 37.4 °F 34.9 °F 35.6 °F 93% 29.84 in 1.8 mi East 3.5 mph - N/A   Overcast
9:43 PM 37.4 °F 34.9 °F 35.6 °F 93% 29.82 in 0.5 mi East 3.5 mph - N/A Fog Fog
9:53 PM 37.0 °F 32.4 °F 36.0 °F 96% 29.83 in 0.5 mi ENE 5.8 mph - N/A Fog Fog
10:53 PM 37.0 °F 32.4 °F 36.0 °F 96% 29.82 in 0.5 mi ENE 5.8 mph - N/A Fog Fog
11:36 PM 35.6 °F 29.9 °F 35.6 °F 100% 29.81 in 0.2 mi East 6.9 mph - N/A Fog Fog
11:53 PM 36.0 °F 31.1 °F 35.1 °F 97% 29.81 in 0.2 mi East 5.8 mph - N/A Fog Fog